Location: Clanezzo
(45.7500°N, 9.6000°E)
Time: 13:58:40
(UTC+00:00)

USA 306 - Pass Details

Date: 12 May 2021
Orbit: 565 x 575 km, 54.0° (Epoch: 11 May)

Event Time Altitude Azimuth Distance (km) Brightness Sun altitude
Rises 20:43:00 0° 303° (WNW) 2,773 7.8 -16.9°
Reaches altitude 10° 20:45:15 10° 302° (WNW) 1,874 6.6 -17.2°
Maximum altitude 20:49:31 82° 217° (SW) 581 2.8 -17.6°
Enters shadow 20:51:02 39° 132° (SE) 859 3.3 -17.8°
